Weather observations for the past three days for
Goodyear Municipal
| Date | Time (mst) | Wind (kph) | Vis. (km) | Weather | Sky Cond. | Temperature (ºC) | Relative Humidity | Wind Chill (°C) | Heat Index (°C) | Pressure | Precipitation (cm) | ||||||
|---|---|---|---|---|---|---|---|---|---|---|---|---|---|---|---|---|---|
| Air | Dwpt | 6 hour | altimeter (cm) | sea level (mb) | 1 hr | 3 hr | 6 hr | ||||||||||
| Max. | Min. | ||||||||||||||||
| 09 | 06:47 | SW 11 | 16.09 | Clear | SKC | 27 | 1 | 18% | 26 | 75.77 | 0.0 | ||||||
| 09 | 05:47 | SW 15 | 16.09 | Clear | SKC | 25 | 1 | 21% | 25 | 75.72 | 0.0 | ||||||
| 08 | 20:47 | W 11 | 16.09 | Clear | SKC | 32 | 3 | 16% | 30 | 75.57 | 0.0 | ||||||
| 08 | 19:47 | SW 20 | 16.09 | Clear | SKC | 34 | 3 | 14% | 32 | 75.51 | 0.0 | ||||||
| 08 | 18:47 | SW 20 | 16.09 | Clear | SKC | 37 | 3 | 12% | 34 | 75.46 | 0.0 | ||||||
| 08 | 17:47 | SW 24 | 16.09 | A Few Clouds | FEW250 | 38 | 2 | 10% | 35 | 75.49 | 0.0 | ||||||
| 08 | 16:47 | SW 26 | 16.09 | A Few Clouds | FEW250 | 38 | 2 | 10% | 35 | 75.51 | 0.0 | ||||||
| 08 | 15:47 | SW 22 G 37 | 16.09 | A Few Clouds | FEW250 | 38 | 3 | 11% | 35 | 75.57 | 0.0 | ||||||
| 08 | 14:47 | SW 28 | 16.09 | A Few Clouds | FEW250 | 37 | 4 | 13% | 34 | 75.67 | 0.0 | ||||||
| 08 | 13:47 | SW 24 G 33 | 16.09 | A Few Clouds | FEW250 | 36 | 5 | 14% | 34 | 75.74 | 0.0 | ||||||
| 08 | 12:47 | SW 19 | 16.09 | Clear | SKC | 34 | 4 | 15% | 32 | 75.82 | 0.0 | ||||||
| 08 | 11:47 | SW 7 | 16.09 | Clear | SKC | 32 | 4 | 17% | 30 | 75.87 | 0.0 | ||||||
| 08 | 10:47 | Vrbl 6 | 16.09 | Clear | SKC | 31 | 4 | 18% | 29 | 75.95 | 0.0 | ||||||
| 08 | 09:47 | Vrbl 7 | 16.09 | Clear | SKC | 28 | 4 | 21% | 27 | 75.97 | 0.0 | ||||||
| 08 | 08:47 | Vrbl 7 | 16.09 | Clear | SKC | 27 | 4 | 23% | 26 | 75.97 | 0.0 | ||||||
| 08 | 07:47 | Vrbl 11 | 16.09 | Clear | SKC | 24 | 3 | 25% | 25 | 75.97 | 0.0 | ||||||
| 08 | 06:47 | Vrbl 9 | 16.09 | Clear | SKC | 22 | 3 | 29% | 75.95 | 0.0 | |||||||
| 08 | 05:47 | Vrbl 9 | 16.09 | Clear | SKC | 21 | 2 | 29% | 75.87 | 0.0 | |||||||
| 07 | 20:47 | SW 19 | 16.09 | Clear | SKC | 31 | -4 | 10% | 29 | 75.72 | 0.0 | ||||||
| 07 | 19:47 | SW 11 | 16.09 | Clear | SKC | 31 | -3 | 11% | 29 | 75.67 | 0.0 | ||||||
| 07 | 18:47 | SW 17 | 16.09 | Clear | SKC | 33 | -3 | 10% | 31 | 75.62 | 0.0 | ||||||
| 07 | 17:47 | SW 19 | 16.09 | Clear | SKC | 34 | -4 | 8% | 31 | 75.62 | 0.0 | ||||||
| 07 | 16:47 | SW 19 | 16.09 | Clear | SKC | 34 | -4 | 8% | 31 | 75.64 | 0.0 | ||||||
| 07 | 15:47 | W 20 G 35 | 16.09 | Clear | SKC | 35 | -4 | 8% | 32 | 75.67 | 0.0 | ||||||
| 07 | 14:47 | Vrbl 9 | 16.09 | Clear | SKC | 35 | -6 | 7% | 32 | 75.72 | 0.0 | ||||||
| 07 | 13:47 | SW 13 | 16.09 | Clear | SKC | 34 | -6 | 7% | 31 | 75.77 | 0.0 | ||||||
| 07 | 12:47 | Vrbl 9 | 16.09 | Clear | SKC | 33 | -4 | 9% | 31 | 75.87 | 0.0 | ||||||
| 07 | 11:47 | Vrbl 11 | 16.09 | Clear | SKC | 32 | -5 | 9% | 30 | 75.95 | 0.0 | ||||||
| 07 | 10:47 | Vrbl 11 | 16.09 | Clear | SKC | 31 | -6 | 9% | 29 | 75.97 | 0.0 | ||||||
| 07 | 09:47 | Calm | 16.09 | Clear | SKC | 28 | 1 | 17% | 27 | 76.02 | 0.0 | ||||||
| 07 | 08:47 | Vrbl 11 | 16.09 | Clear | SKC | 26 | 2 | 21% | 26 | 76.05 | 0.0 | ||||||
| 07 | 07:47 | Vrbl 9 | 16.09 | Clear | SKC | 23 | 2 | 25% | 76.05 | 0.0 | |||||||
| 07 | 06:47 | Vrbl 6 | 16.09 | Clear | SKC | 21 | 2 | 29% | 76.02 | 0.0 | |||||||
| 07 | 05:47 | Calm | 16.09 | Clear | SKC | 18 | 1 | 32% | 76 | 0.0 | |||||||
| 06 | 20:47 | SW 9 | 16.09 | Clear | SKC | 24 | 3 | 25% | 25 | 76 | 0.0 | ||||||
| 06 | 19:47 | SW 9 | 16.09 | Clear | SKC | 27 | 1 | 18% | 26 | 75.92 | 0.0 | ||||||
| 06 | 18:47 | SW 13 | 16.09 | Clear | SKC | 28 | 1 | 17% | 27 | 75.9 | 0.0 | ||||||
| 06 | 17:47 | SW 13 | 16.09 | Clear | SKC | 28 | 1 | 17% | 27 | 75.9 | 0.0 | ||||||
| 06 | 16:47 | Vrbl 7 | 16.09 | Clear | SKC | 28 | 2 | 19% | 27 | 75.92 | 0.0 | ||||||
| 06 | 15:47 | SW 17 | 16.09 | Clear | SKC | 28 | 2 | 19% | 27 | 75.97 | 0.0 | ||||||
| 06 | 14:47 | S 7 | 16.09 | Clear | SKC | 27 | 1 | 18% | 26 | 76.02 | 0.0 | ||||||
| 06 | 13:47 | S 9 | 16.09 | Clear | SKC | 28 | 1 | 17% | 27 | 76.1 | 0.0 | ||||||
| 06 | 12:47 | NW 9 | 16.09 | Clear | SKC | 26 | 1 | 20% | 25 | 76.12 | 0.0 | ||||||
| 06 | 11:47 | Calm | 16.09 | Clear | SKC | 26 | 1 | 20% | 25 | 76.2 | 0.0 | ||||||
| 06 | 10:47 | SW 15 | 16.09 | Clear | SKC | 24 | 3 | 25% | 25 | 76.23 | 0.0 | ||||||
| 06 | 09:47 | SW 13 | 16.09 | Clear | SKC | 22 | 3 | 29% | 76.23 | 0.0 | |||||||
| 06 | 08:47 | W 11 | 16.09 | Clear | SKC | 20 | 4 | 35% | 76.2 | 0.0 | |||||||
| 06 | 07:47 | W 11 | 16.09 | Clear | SKC | 17 | 3 | 39% | 76.2 | 0.0 | |||||||
| Date | Time (mst) | Wind (kph) | Vis. (km) | Weather | Sky Cond. | Air | Dwpt | Max. | Min. | Relative Humidity | Wind Chill (°C) | Heat Index (°C) | altimeter (cm) | sea level (mb) | 1 hr | 3 hr | 6 hr |
| 6 hour | |||||||||||||||||
| Temperature (ºC) | Pressure | Precipitation (cm) | |||||||||||||||